Regional Weather Roundup
Issued by NWS

Home | Current Version | Previous Version | Graphics & Text | Print | Product List | Glossary On
Versions: 1 2 3 4 5 6 7 8 9 10 11 12 13 14 15 16 17 18 19 20 21 22 23 24 25 26 27 28 29 30 31 32 33 34 35 36 37 38 39 40 41 42 43 44 45 46 47 48 49 50
000
ASUS43 KFSD 230202
RWRSD

WEATHER ROUNDUP FOR SOUTH DAKOTA
NATIONAL WEATHER SERVICE SIOUX FALLS SD
900 PM CDT TUE AUG 22 2017

NOTE: "FAIR" INDICATES FEW OR NO CLOUDS BELOW 12,000 FEET WITH NO
SIGNIFICANT WEATHER AND/OR OBSTRUCTIONS TO VISIBILITY.


SDZ001>005-009-010-012>017-230300-
NORTHWEST AND NORTH CENTRAL SOUTH DAKOTA

CITY           SKY/WX    TMP DP  RH WIND       PRES   REMARKS
BUFFALO          N/A     73  43  33 E10       30.04S
FAITH            N/A     68  51  54 E9        30.11S
MOBRIDGE       CLEAR     63  50  62 NE7       30.09F
$$

SDZ012>016-024>037-041>051-057-063-072>074-230300-
SOUTHWEST AND SOUTH CENTRAL SOUTH DAKOTA

CITY           SKY/WX    TMP DP  RH WIND       PRES   REMARKS
RAPID CTY ARPT CLEAR     72  46  39 E9        30.09S
PIERRE         CLEAR     67  52  58 E6        30.09S
CUSTER         MOCLDY    68  47  46 S8        30.23S
ELLSWORTH AFB  CLEAR     76  45  33 SE9       30.09S
PHILIP         CLEAR     73  49  42 E12       30.08R
PINE RIDGE     CLEAR     74  47  38 S7        30.12S
SPEARFISH      FAIR      70  45  40 SE6       30.14S
WINNER         FAIR      67  56  67 SE8       30.13F
$$

SDZ004>011-016>023-039-040-230300-
NORTHEAST SOUTH DAKOTA

CITY           SKY/WX    TMP DP  RH WIND       PRES   REMARKS
ABERDEEN       CLEAR     64  50  60 CALM      30.11S
WATERTOWN      CLEAR     63  49  60 NW3       30.12R
BROOKINGS      CLEAR     63  53  70 CALM      30.13S
SISSETON         N/A     60  52  74 W6        30.09R
$$

SDZ017-020-022-023-036>040-048>070-230300-
SOUTHEAST SOUTH DAKOTA

CITY           SKY/WX    TMP DP  RH WIND       PRES   REMARKS
SIOUX FALLS    CLEAR     63  54  72 CALM      30.13R
HURON          CLEAR     62  51  67 CALM      30.12R
CHAMBERLAIN    CLEAR     66  57  72 E5        30.13S
MITCHELL       CLEAR     66  53  63 NE3       30.13R
YANKTON        CLEAR     69  53  56 CALM      30.14R
$$

ABBREVIATIONS USED IN REMARKS
   TC - TEMPERATURE IN CELSIUS
  WCI - WIND CHILL INDEX
   HX - HEAT INDEX
  VSB - VISIBILITY





USA.gov is the U.S. government's official web portal to all federal, state and local government web resources and services.